TimePDT,TemperatureF,Dew PointF,Humidity,Sea Level PressureIn,VisibilityMPH,Wind Direction,Wind SpeedMPH,Gust SpeedMPH,PrecipitationIn,Events,Conditions,WindDirDegrees,DateUTC
12:45 AM,59.0,55.4,88,29.92,10.0,ESE,6.9,-,N/A,,Clear,120,2013-09-24 07:45:00
1:50 AM,57.2,55.4,94,29.92,10.0,ESE,6.9,-,N/A,,Clear,120,2013-09-24 08:50:00
3:55 AM,57.2,53.6,88,29.90,10.0,ESE,9.2,-,N/A,,Clear,120,2013-09-24 10:55:00
4:50 AM,57.2,55.4,94,29.91,10.0,SE,6.9,-,N/A,,Clear,140,2013-09-24 11:50:00
5:45 AM,57.2,55.4,94,29.91,10.0,SE,9.2,-,N/A,,Clear,130,2013-09-24 12:45:00
6:51 AM,57.2,53.6,88,29.93,10.0,SSE,8.1,-,N/A,,Scattered Clouds,150,2013-09-24 13:51:00
7:48 AM,60.8,55.4,82,29.94,10.0,SSE,9.2,-,N/A,,Scattered Clouds,150,2013-09-24 14:48:00
8:48 AM,64.4,55.4,73,29.95,10.0,South,9.2,-,N/A,,Mostly Cloudy,170,2013-09-24 15:48:00
9:45 AM,64.4,53.6,68,29.95,10.0,South,12.7,-,N/A,,Scattered Clouds,170,2013-09-24 16:45:00
10:55 AM,71.6,53.6,53,29.97,10.0,SW,11.5,-,N/A,,Partly Cloudy,220,2013-09-24 17:55:00
11:46 AM,73.4,53.6,50,29.96,10.0,SSW,12.7,17.3,N/A,,Partly Cloudy,210,2013-09-24 18:46:00
1:47 PM,77.0,48.2,36,29.93,10.0,SW,11.5,17.3,N/A,,Partly Cloudy,220,2013-09-24 20:47:00
2:46 PM,77.0,48.2,36,29.89,10.0,West,3.5,-,N/A,,Partly Cloudy,260,2013-09-24 21:46:00
3:46 PM,78.8,48.2,34,29.86,10.0,WSW,8.1,-,N/A,,Partly Cloudy,240,2013-09-24 22:46:00
4:45 PM,78.8,48.2,34,29.84,10.0,SW,16.1,19.6,N/A,,Partly Cloudy,230,2013-09-24 23:45:00
5:46 PM,75.2,50.0,41,29.85,10.0,SW,19.6,23.0,N/A,,Partly Cloudy,230,2013-09-25 00:46:00
6:46 PM,71.6,50.0,46,29.83,10.0,SSW,15.0,-,N/A,,Partly Cloudy,200,2013-09-25 01:46:00
7:45 PM,64.4,51.8,64,29.84,10.0,South,9.2,-,N/A,,Clear,180,2013-09-25 02:45:00
9:45 PM,59.0,50.0,72,29.86,10.0,ESE,5.8,-,N/A,,Clear,120,2013-09-25 04:45:00
10:50 PM,55.4,50.0,82,29.87,10.0,SE,8.1,-,N/A,,Clear,130,2013-09-25 05:50:00